This is the latest recevied weather packets stored in our database for station/object N1UNH. If no packets are shown the sender has not sent any weather packets the latest 10 day(s).
| Time | Temp. | Humidity | Pressure | Rain* | Wind** | Luminosity | Snow |
|---|---|---|---|---|---|---|---|
| 1777228413 | 18.89° C | 29% | 1024.9 hPa | 0 mm | - | 813 W/m² | - |
| 1777228110 | 18.33° C | 29% | 1025 hPa | 0 mm | - | 713 W/m² | - |
| 1777227809 | 18.89° C | 28% | 1024.7 hPa | 0 mm | - | 687 W/m² | - |
| 1777227506 | 18.89° C | 30% | 1024.9 hPa | 0 mm | - | 602 W/m² | - |
| 1777227201 | 18.89° C | 30% | 1025 hPa | 0 mm | - | 463 W/m² | - |
| 1777226898 | 19.44° C | 28% | 1024.9 hPa | 0 mm | - | 579 W/m² | - |
| 1777226596 | 18.89° C | 29% | 1025.1 hPa | 0 mm | - | 788 W/m² | - |
| 1777226293 | 17.78° C | 30% | 1025 hPa | 0 mm | - | 900 W/m² | - |
| 1777225989 | 17.78° C | 30% | 1025.2 hPa | 0 mm | - | 731 W/m² | - |
| 1777225684 | 17.22° C | 31% | 1025.3 hPa | 0 mm | - | 549 W/m² | - |
| 1777225382 | 16.67° C | 31% | 1025.2 hPa | 0 mm | - | 378 W/m² | - |
| 1777225078 | 16.67° C | 32% | 1025.2 hPa | 0 mm | - | 377 W/m² | - |
| 1777224775 | 16.67° C | 33% | 1025.3 hPa | 0 mm | - | 357 W/m² | - |
| 1777224471 | 16.67° C | 31% | 1025.3 hPa | 0 mm | - | 327 W/m² | - |
| 1777224167 | 16.67° C | 32% | 1025.2 hPa | 0 mm | - | 288 W/m² | - |
| 1777223864 | 17.22° C | 32% | 1025.2 hPa | 0 mm | - | 298 W/m² | - |
| 1777223560 | 17.78° C | 31% | 1025.1 hPa | 0 mm | - | 403 W/m² | - |
| 1777223257 | 17.78° C | 30% | 1025.6 hPa | 0 mm | - | 517 W/m² | - |
| 1777222955 | 17.78° C | 29% | 1025.2 hPa | 0 mm | - | 752 W/m² | - |
| 1777222652 | 17.78° C | 31% | 1025.3 hPa | 0 mm | - | 938 W/m² | - |
| 1777222349 | 17.78° C | 30% | 1025.6 hPa | 0 mm | - | 875 W/m² | - |
| 1777222048 | 17.22° C | 31% | 1025.7 hPa | 0 mm | - | 914 W/m² | - |
| 1777221743 | 16.67° C | 32% | 1025.6 hPa | 0 mm | - | 612 W/m² | - |
| 1777221439 | 16.11° C | 34% | 1025.5 hPa | 0 mm | - | 761 W/m² | - |
| 1777221138 | 16.11° C | 33% | 1025.8 hPa | 0 mm | - | 663 W/m² | - |
* Rain latest hour (hover to see other rain measurements)
** Current wind speed in m/s (hover to see current wind gust speed)